Weather Roundup
Issued by NWS Chicago, IL

Home | Current Version | Previous Version | Text Only | Print | Product List | Glossary Off
Versions: 1 2 3 4 5 6 7 8 9 10 11 12 13 14 15 16 17 18 19 20 21 22 23 24 25 26 27 28 29 30 31 32 33 34 35 36 37 38 39 40 41 42 43 44 45 46 47 48 49 50

000
NZUS59 KLOT 041212
HRRLOT

CHICAGO AREA WEATHER ROUNDUP
NATIONAL WEATHER SERVICE CHICAGO/ROMEOVILLE IL
700 AM CDT SAT JUL 04 2015

NOTE: "FAIR" INDICATES FEW OR NO CLOUDS BELOW 12,000 FEET WITH NO
SIGNIFICANT WEATHER AND/OR OBSTRUCTIONS TO VISIBILITY.

* THESE STATIONS ARE NOT UNDER NWS QUALITY CONTROL. THEY ALSO MAY NOT
  REPORT WEATHER SUCH AS PRECIPITATION OR FOG.

ILZ005-006-012>014-019>023-041300-
NORTHEAST ILLINOIS

CITY           SKY/WX    TMP DP  RH WIND       PRES   REMARKS
OHARE          SUNNY     63  57  81 NW3       29.98R
6HR MIN TEMP:  59; 6HR MAX TEMP:  63;

MIDWAY         MOSUNNY   64  58  80 CALM      29.98R
6HR MIN TEMP:  62; 6HR MAX TEMP:  66;

AURORA         SUNNY     60  56  86 NW3       30.00R FOG
6HR MIN TEMP:  57; 6HR MAX TEMP:  61;

LANSING*       SUNNY     59  56  90 CALM      29.99R FOG
JOLIET*        SUNNY     60  59  96 CALM      29.99R FOG
WAUKEGAN       SUNNY     61  56  83 VRB5      29.98R
6HR MIN TEMP:  55; 6HR MAX TEMP:  61;

DUPAGE AIRPORT SUNNY     60  56  86 CALM      29.98S FOG
6HR MIN TEMP:  55; 6HR MAX TEMP:  60;

WHEELING       SUNNY     61  55  81 CALM      29.99R
6HR MIN TEMP:  57; 6HR MAX TEMP:  61;

KANKAKEE*      SUNNY     60  59  97 CALM      29.99S FOG
MORRIS*        SUNNY     59  57  91 CALM      29.95S FOG
LEWIS AIRPORT* SUNNY     61  59  92 CALM      29.99S FOG
NORTHERLY IS     N/A     67  54  63 W7          N/A
$$

WIZ051-052-058>065-066-070>072-041300-
SOUTHEAST WISCONSIN

CITY           SKY/WX    TMP DP  RH WIND       PRES   REMARKS
MILWAUKEE      MOSUNNY   65  55  70 W7        29.97S
6HR MIN TEMP:  60; 6HR MAX TEMP:  65;

KENOSHA*       SUNNY     60  56  86 W5        29.98S FOG
RACINE*        SUNNY     62  54  74 W7        29.99R
BURLINGTON     SUNNY     54  54  99 CALM      29.98S FOG
WAUKESHA       SUNNY     57  54  88 CALM      29.99R
WEST BEND      PTSUNNY   61  55  82 CALM      29.97S
$$

INZ001>003-010>013-019-020-041300-
NORTHWEST INDIANA

CITY           SKY/WX    TMP DP  RH WIND       PRES   REMARKS
GARY*          SUNNY     61  59  94 CALM      29.98R FOG
MICHIGAN CITY* NOT AVBL
RENSSELAER*    NOT AVBL
VALPARAISO     SUNNY     59  56  89 CALM      30.00R FOG
$$

LMZ740>746-041300-
SOUTHERN LAKE MICHIGAN

STATION/POSITION TIME  SKY/WX   TEMP WIND        PRES    VSBY
                                AIR  DIR/SP/G
                 (UTC)          (F)  (DEG/KT/KT) (MB)    (MI)
HARRISON CRIB    1100            66  270/  9/ 10   N/A
BURNHAM HARBOR   1200            67  270/  9/  9   N/A
CALUMET HARBOR   1100            61  240/  3/  4   N/A
BURNS HARBOR     1100            60  190/  3/  3 1015.6R
MICHIGAN CITY    1100            58  150/  2/  3   N/A
$$

ABBREVIATIONS USED IN REMARKS
   TC - TEMPERATURE IN CELSIUS
  WCI - WIND CHILL INDEX
   HX - HEAT INDEX
  VSB - VISIBILITY
$$


USA.gov is the U.S. government's official web portal to all federal, state and local government web resources and services.